Flag for China Weather past 2 weeks in Changsha, Hunan, China

Now
77 °F

Scattered clouds.


Feels Like: 79 °F
Forecast: 62 / 82 °F
Wind: 6 mph from South

Location: Changsha

Current Time: Apr 25, 2015 at 2:47:10 PM

Latest Report: Apr 25, 2015 at 2:00 PM


Visibility: N/A

Pressure: 30.07 "Hg

Humidity: 47%

Dew point: 55 °F

Location of ChangshaLocation

Historic Weather in Changsha — Graph

°F

Changsha temperature yesterday

Maximum temperature yesterday: 73 °F (at 1:00 PM)
Minimum temperature yesterday: 61 °F (at 3:00 AM)
Average temperature yesterday: 67 °F

Past Weeks' High & Low Weather Summary

 TemperatureHumidityPressure
High90 °F (Apr 16, 3:00 PM)94% (Apr 11, 3:00 AM)30.30 "Hg (Apr 11, 3:00 AM)
Low43 °F (Apr 14, 5:00 AM)20% (Apr 13, 2:00 PM)29.56 "Hg (Apr 18, 4:00 PM)
Average64 °F68%30.00 "Hg
* Reported Apr 10 1:00 PM — Apr 25 1:00 PM, Changsha, Weather by CustomWeather, © 2015

Note: Actual official high and low records may vary slightly from our data, if they occured in-between our weather recording intervals... More about our weather records

Advertising

Changsha weather history for previous 24 hours

 ConditionsComfort  
Time TempWeatherWind HumidityBarometerVisibility
1:00 PM
Sat, Apr 25
77 °FScattered clouds.3 mph44%30.09 "HgN/A
12:00 PM77 °FScattered clouds.3 mph42%30.12 "HgN/A
11:00 AM75 °FPassing clouds.6 mph57%30.12 "HgN/A
10:00 AM72 °FClear.6 mph69%30.12 "Hg4 mi
9:00 AM70 °FFog.1 mph78%30.15 "Hg3 mi
7:00 AM66 °FFog.No wind88%30.12 "Hg2 mi
6:00 AM64 °FFog.1 mph88%30.09 "Hg1 mi
5:00 AM64 °FFog.1 mph88%30.09 "Hg2 mi
4:00 AM64 °FFog.3 mph94%30.09 "Hg2 mi
3:00 AM66 °FFog.3 mph88%30.09 "Hg2 mi
2:00 AM64 °FFog.No wind88%30.09 "Hg3 mi
1:00 AM66 °FLight rain. Fog.1 mph83%30.12 "Hg3 mi
12:00 AM64 °FFog.1 mph88%30.12 "Hg3 mi
11:00 PM
Fri, Apr 24
66 °FFog.1 mph83%30.12 "Hg3 mi
10:00 PM66 °FLight rain. Fog.1 mph83%30.12 "Hg3 mi
9:00 PM66 °FLight rain. Passing clouds.3 mph83%30.12 "Hg4 mi
8:00 PM68 °FLight rain. Overcast.3 mph78%30.09 "Hg4 mi
7:00 PM70 °FLight rain. Mostly cloudy.6 mph73%30.09 "Hg4 mi
6:00 PM72 °FOvercast.1 mph65%30.07 "Hg4 mi
5:00 PM73 °FOvercast.3 mph61%30.07 "Hg4 mi
4:00 PM73 °FOvercast.6 mph61%30.07 "Hg4 mi
3:00 PM73 °FBroken clouds.3 mph61%30.09 "Hg3 mi
2:00 PM73 °FScattered clouds.3 mph57%30.09 "Hg4 mi
Weather by CustomWeather, © 2015

See weather overviewHow to use our weather pages